Home > Weather > Mombasa > Past weeks

Flag for Kenya Weather for the Past 2 Weeks in Mombasa, Kenya

Now
79 °F

Passing clouds.


Feels Like: 82 °F
Forecast: 76 / 91 °F
Wind: 7 mph from Northeast

Location: Mombasa Airport

Current Time: Feb 6, 2016 at 2:23:26 AM

Latest Report: Feb 6, 2016 at 12:00 AM


Visibility: N/A

Pressure: 29.89 "Hg

Humidity: 84%

Dew point: 73 °F

Location of MombasaLocation

Historic Weather in Mombasa — Graph

°F

Mombasa Temperature Yesterday

Maximum temperature yesterday: 95 °F (at 1:00 PM)
Minimum temperature yesterday: 77 °F (at 5:00 AM)
Average temperature yesterday: 84 °F

High & Low Weather Summary for the Past Weeks

 TemperatureHumidityPressure
High95 °F (Feb 3, 1:00 PM)100% (Feb 3, 10:00 AM)30.01 "Hg (Feb 3, 10:00 AM)
Low73 °F (Jan 26, 6:00 AM)41% (Feb 3, 1:00 PM)29.74 "Hg (Jan 22, 5:00 PM)
Average83 °F75%29.88 "Hg
* Reported Midnight between Jan 21 and Jan 22 — Midnight between Feb 5 and Feb 6, Mombasa, Weather by CustomWeather, © 2016

Note: Actual official high and low records may vary slightly from our data, if they occured in-between our weather recording intervals... More about our weather records

Advertising

Mombasa Weather History for the Previous 24 Hours

 ConditionsComfort  
Time TempWeatherWind HumidityBarometerVisibility
12:00 AM
Sat, Feb 6
79 °FPassing clouds.7 mph84%29.89 "HgN/A
11:00 PM
Fri, Feb 5
79 °FPassing clouds.8 mph84%29.89 "HgN/A
10:00 PM79 °FPassing clouds.9 mph84%29.89 "HgN/A
9:00 PM81 °FPassing clouds.12 mph79%29.86 "HgN/A
8:00 PM81 °FPassing clouds.13 mph79%29.80 "HgN/A
7:00 PM81 °FPassing clouds.15 mph79%29.80 "HgN/A
6:00 PM84 °FPassing clouds.16 mph70%29.77 "HgN/A
5:00 PM88 °FPassing clouds.17 mph62%29.77 "HgN/A
4:00 PM90 °FPassing clouds.16 mph59%29.74 "HgN/A
3:00 PM91 °FScattered clouds.16 mph52%29.77 "HgN/A
2:00 PM91 °FPartly sunny.15 mph52%29.77 "HgN/A
1:00 PM95 °FPartly sunny.13 mph41%29.83 "HgN/A
12:00 PM91 °FScattered clouds.13 mph49%29.89 "HgN/A
11:00 AM90 °FScattered clouds.13 mph52%29.92 "HgN/A
10:00 AM88 °FPartly sunny.9 mph62%29.92 "HgN/A
9:00 AM84 °FPartly sunny.13 mph66%29.95 "HgN/A
8:00 AM81 °FPartly sunny.7 mph79%29.95 "HgN/A
7:00 AM79 °FPartly sunny.5 mph84%29.92 "HgN/A
6:00 AM77 °FPassing clouds.5 mph89%29.92 "HgN/A
5:00 AM77 °FPassing clouds.5 mph89%29.89 "HgN/A
3:00 AM79 °FPassing clouds.7 mph84%29.89 "HgN/A
2:00 AM79 °FPassing clouds.7 mph89%29.89 "HgN/A
Weather by CustomWeather, © 2016

See weather overviewHow to use our weather pages